0 IRIDIUM 181 1 56726U 23068S 25136.75032737 .00000356 00000-0 99642-4 0 9994 2 56726 86.4545 222.3524 0002768 85.2437 274.9080 14.43308484105254 0 IRIDIUM 177 1 56727U 23068T 25137.10955856 .00000181 00000-0 20224-4 0 9997 2 56727 86.1976 156.8771 0002747 90.8165 269.3371 14.80221903107773 0 IRIDIUM 174 1 56728U 23068U 25137.10508754 .00001247 00000-0 19383-3 0 9996 2 56728 86.6117 159.2693 0002069 93.8725 266.2729 14.72267660107749 0 IRIDIUM 178 1 56729U 23068V 25137.43666975 .00001491 00000-0 19278-3 0 9997 2 56729 86.6593 190.6601 0002216 88.8316 271.3160 14.80229380107821 0 IRIDIUM 179 1 56730U 23068W 25137.22849902 .00001543 00000-0 19965-3 0 9990 2 56730 86.6834 198.5232 0002588 97.0668 263.0847 14.80234661107796